• In Netherlands
  • List of Countries
  • For 7 days
  • Water Temperature
  • Satellite Maps
  • Weather Map
  • Weather Widgets
  • user-avatar
    Login

    Hourly Weather Dobrich

    Today, 20 February, Monday

    Time Temperature Precipitation Wind Pressure Humidity
    00:00 +2°C° 0.9 mm 3 mps 742 mmHg 97%
    01:00 +2°C° 0.9 mm 3 mps 741 mmHg 97%
    02:00 +1°C° 0 mm 3 mps 741 mmHg 97%
    03:00 +1°C° 0.1 mm 3 mps 740 mmHg 97%
    04:00 0°C° 0.1 mm 4 mps 740 mmHg 96%
    05:00 -1°C° 0.1 mm 5 mps 740 mmHg 96%
    06:00 -1°C° 0 mm 5 mps 740 mmHg 95%
    07:00 -2°C° 0 mm 6 mps 740 mmHg 94%
    08:00 -3°C° 0 mm 6 mps 740 mmHg 92%
    09:00 -2°C° 0.2 mm 6 mps 740 mmHg 91%
    10:00 -2°C° 0.2 mm 7 mps 740 mmHg 90%
    11:00 -2°C° 0.2 mm 7 mps 740 mmHg 89%
    12:00 -1°C° 0.2 mm 7 mps 740 mmHg 89%
    13:00 -1°C° 0.2 mm 7 mps 740 mmHg 89%
    14:00 -1°C° 0.2 mm 8 mps 740 mmHg 88%
    15:00 -1°C° 0 mm 7 mps 740 mmHg 89%
    16:00 -1°C° 0 mm 7 mps 740 mmHg 90%
    17:00 -1°C° 0 mm 6 mps 740 mmHg 90%
    18:00 -2°C° 0 mm 6 mps 740 mmHg 91%
    19:00 -2°C° 0 mm 6 mps 740 mmHg 92%
    20:00 -2°C° 0 mm 6 mps 740 mmHg 93%
    21:00 -3°C° 0 mm 6 mps 740 mmHg 93%
    22:00 -3°C° 0 mm 6 mps 740 mmHg 92%
    23:00 -3°C° 0 mm 6 mps 740 mmHg 92%

    Tomorrow, 21 February, Tuesday

    Time Temperature Precipitation Wind Pressure Humidity
    00:00 -3°C° 0 mm 6 mps 740 mmHg 92%
    01:00 -3°C° 0 mm 6 mps 740 mmHg 92%
    02:00 -3°C° 0 mm 6 mps 740 mmHg 92%
    03:00 -4°C° 0 mm 6 mps 740 mmHg 91%
    04:00 -4°C° 0 mm 6 mps 739 mmHg 90%
    05:00 -4°C° 0 mm 6 mps 739 mmHg 90%
    06:00 -4°C° 0 mm 6 mps 739 mmHg 88%
    07:00 -3°C° 0 mm 6 mps 739 mmHg 86%
    08:00 -3°C° 0 mm 6 mps 739 mmHg 85%
    09:00 -2°C° 0 mm 6 mps 739 mmHg 81%
    10:00 -1°C° 0 mm 6 mps 739 mmHg 77%
    11:00 +2°C° 0 mm 6 mps 739 mmHg 73%
    12:00 +2°C° 0 mm 6 mps 738 mmHg 72%
    13:00 +3°C° 0 mm 7 mps 738 mmHg 70%
    14:00 +4°C° 0 mm 7 mps 737 mmHg 69%
    15:00 +3°C° 0 mm 6 mps 737 mmHg 72%
    16:00 +3°C° 0 mm 5 mps 737 mmHg 75%
    17:00 +2°C° 0 mm 5 mps 737 mmHg 77%
    18:00 +2°C° 0 mm 5 mps 737 mmHg 80%
    19:00 +1°C° 0 mm 5 mps 736 mmHg 82%
    20:00 +1°C° 0 mm 5 mps 736 mmHg 84%
    21:00 +1°C° 0 mm 5 mps 736 mmHg 82%
    22:00 +1°C° 0 mm 5 mps 736 mmHg 81%
    23:00 +1°C° 0 mm 5 mps 736 mmHg 79%

    Day after tomorrow, 22 February, Wednesday

    Time Temperature Precipitation Wind Pressure Humidity
    00:00 +1°C° 0 mm 5 mps 736 mmHg 78%
    01:00 +1°C° 0 mm 5 mps 736 mmHg 78%
    02:00 +1°C° 0 mm 5 mps 736 mmHg 77%
    03:00 -1°C° 0 mm 6 mps 736 mmHg 80%
    04:00 -1°C° 0 mm 6 mps 736 mmHg 83%
    05:00 -1°C° 0 mm 6 mps 736 mmHg 87%
    06:00 -1°C° 0 mm 6 mps 736 mmHg 88%
    07:00 -1°C° 0 mm 6 mps 736 mmHg 89%
    08:00 +1°C° 0 mm 6 mps 737 mmHg 90%
    09:00 +2°C° 0 mm 6 mps 737 mmHg 85%
    10:00 +4°C° 0 mm 6 mps 738 mmHg 81%
    11:00 +6°C° 0 mm 5 mps 738 mmHg 76%
    12:00 +7°C° 0 mm 5 mps 738 mmHg 75%
    13:00 +8°C° 0 mm 5 mps 738 mmHg 74%
    14:00 +8°C° 0 mm 5 mps 738 mmHg 73%
    15:00 +8°C° 0 mm 4 mps 738 mmHg 76%
    16:00 +8°C° 0 mm 3 mps 738 mmHg 80%
    17:00 +8°C° 0 mm 3 mps 738 mmHg 84%
    18:00 +7°C° 0 mm 3 mps 738 mmHg 86%
    19:00 +5°C° 0 mm 3 mps 738 mmHg 89%
    20:00 +4°C° 0 mm 3 mps 738 mmHg 91%
    21:00 +4°C° 0 mm 3 mps 738 mmHg 90%
    22:00 +4°C° 0 mm 3 mps 738 mmHg 90%
    23:00 +4°C° 0 mm 3 mps 738 mmHg 89%

    23 February, Thursday

    Time Temperature Precipitation Wind Pressure Humidity
    00:00 +4°C° 0 mm 3 mps 738 mmHg 88%
    01:00 +4°C° 0 mm 3 mps 738 mmHg 86%
    02:00 +4°C° 0 mm 3 mps 738 mmHg 85%
    03:00 +4°C° 0 mm 3 mps 737 mmHg 84%
    04:00 +4°C° 0 mm 3 mps 737 mmHg 83%
    05:00 +4°C° 0 mm 3 mps 737 mmHg 81%
    06:00 +4°C° 0 mm 4 mps 737 mmHg 79%
    07:00 +5°C° 0 mm 4 mps 737 mmHg 78%
    08:00 +5°C° 0 mm 4 mps 738 mmHg 76%
    09:00 +7°C° 0 mm 5 mps 738 mmHg 71%
    10:00 +9°C° 0 mm 6 mps 738 mmHg 66%
    11:00 +11°C° 0 mm 7 mps 738 mmHg 61%
    12:00 +11°C° 0 mm 7 mps 738 mmHg 60%
    13:00 +12°C° 0 mm 7 mps 738 mmHg 59%
    14:00 +12°C° 0 mm 7 mps 738 mmHg 58%
    15:00 +11°C° 0 mm 6 mps 738 mmHg 62%
    16:00 +12°C° 0 mm 5 mps 738 mmHg 66%
    17:00 +11°C° 0 mm 4 mps 738 mmHg 71%
    18:00 +10°C° 0 mm 4 mps 738 mmHg 73%
    19:00 +8°C° 0 mm 4 mps 738 mmHg 76%
    20:00 +7°C° 0 mm 4 mps 738 mmHg 79%
    21:00 +6°C° 0 mm 4 mps 738 mmHg 80%
    22:00 +6°C° 0 mm 4 mps 738 mmHg 81%
    23:00 +7°C° 0 mm 3 mps 738 mmHg 82%

    24 February, Friday

    Time Temperature Precipitation Wind Pressure Humidity
    00:00 +5°C° 0 mm 3 mps 737 mmHg 85%
    01:00 +5°C° 0 mm 3 mps 737 mmHg 87%
    02:00 +5°C° 0 mm 3 mps 736 mmHg 90%
    03:00 +5°C° 0 mm 4 mps 736 mmHg 91%
    04:00 +4°C° 0 mm 4 mps 736 mmHg 92%
    05:00 +4°C° 0 mm 4 mps 735 mmHg 93%
    06:00 +4°C° 0 mm 4 mps 736 mmHg 91%
    07:00 +5°C° 0 mm 4 mps 736 mmHg 89%
    08:00 +5°C° 0 mm 4 mps 736 mmHg 87%
    09:00 +7°C° 0 mm 4 mps 736 mmHg 78%
    10:00 +9°C° 0 mm 5 mps 736 mmHg 70%
    11:00 +12°C° 0 mm 5 mps 736 mmHg 61%
    12:00 +13°C° 0 mm 6 mps 736 mmHg 58%
    13:00 +14°C° 0 mm 6 mps 736 mmHg 55%
    14:00 +14°C° 0 mm 6 mps 736 mmHg 52%
    15:00 +14°C° 0 mm 5 mps 735 mmHg 57%
    16:00 +13°C° 0 mm 5 mps 735 mmHg 62%
    17:00 +12°C° 0 mm 4 mps 735 mmHg 67%
    18:00 +11°C° 0 mm 4 mps 735 mmHg 71%
    19:00 +10°C° 0 mm 4 mps 735 mmHg 74%
    20:00 +8°C° 0 mm 5 mps 735 mmHg 78%
    21:00 +8°C° 0 mm 5 mps 735 mmHg 78%
    22:00 +8°C° 0 mm 5 mps 735 mmHg 78%
    23:00 +7°C° 0 mm 5 mps 734 mmHg 78%

    25 February, Saturday

    Time Temperature Precipitation Wind Pressure Humidity
    00:00 +7°C° 0 mm 5 mps 734 mmHg 79%
    01:00 +7°C° 0 mm 5 mps 733 mmHg 80%
    02:00 +7°C° 0 mm 5 mps 733 mmHg 81%
    03:00 +7°C° 0 mm 6 mps 733 mmHg 80%
    04:00 +8°C° 0 mm 6 mps 733 mmHg 80%
    05:00 +8°C° 0 mm 6 mps 733 mmHg 79%
    06:00 +8°C° 0.1 mm 6 mps 733 mmHg 82%
    07:00 +8°C° 0.1 mm 6 mps 733 mmHg 84%
    08:00 +8°C° 0.1 mm 6 mps 734 mmHg 87%
    09:00 +9°C° 0 mm 6 mps 734 mmHg 82%
    10:00 +10°C° 0 mm 7 mps 735 mmHg 77%
    11:00 +10°C° 0 mm 7 mps 736 mmHg 72%
    12:00 +11°C° 0 mm 8 mps 736 mmHg 64%
    13:00 +12°C° 0 mm 8 mps 736 mmHg 56%
    14:00 +12°C° 0 mm 9 mps 736 mmHg 48%
    15:00 +11°C° 0 mm 7 mps 736 mmHg 51%
    16:00 +11°C° 0 mm 6 mps 736 mmHg 55%
    17:00 +10°C° 0 mm 5 mps 737 mmHg 58%
    18:00 +10°C° 0 mm 4 mps 737 mmHg 62%
    19:00 +8°C° 0 mm 4 mps 737 mmHg 65%
    20:00 +7°C° 0 mm 4 mps 738 mmHg 69%
    21:00 +7°C° 0 mm 4 mps 738 mmHg 69%
    22:00 +7°C° 0 mm 4 mps 738 mmHg 69%
    23:00 +6°C° 0 mm 4 mps 738 mmHg 69%
    Show more